STARLINK-11433, 62008

Orbit data source: Space-Track

STARLINK-11433, 62008 is a payload satellite owned by SpaceX/Seattle (US) in LEO that was launched on Mon, 18 Nov 2024 UTC via an FALCON 9 launch vehicle from the Air Force Western Test Range (AFWTR). Payload-class satellites include a variety of spacecraft equipped with specific instruments for various scientific and technological missions. These include communications satellites like Starlink; space stations such as the ISS; scientific satellites like the Hubble; Earth observation satellites from companies like Planet Labs, Umbra, and HawkEye 360; GPS; miniature CubeSats for education and research; and military/defense satellites.

Loading next visibility...
Identifier
62008, 2024-213A
Orbit
LEO
Country
Flag of USUS
Related business
Manufacturer
SpaceX/Seattle
Mission
Operational Commercial Communications
Bus & Motor
STARLINK V2MD, Unknown motor
Mass
960 kg wet, ~910 kg dry
Launch date (UTC)
2024-11-18 (10 months ago)
Launch vehicle
FALCON 9
Launch site
Air Force Western Test Range (AFWTR)
Object type
Payload
Rocket body
Debris
Shape & HBR
Box + 2 Pan, 14.5 m
Radar Cross Section
36.964 m², Large (>1 m²)

Expand to show TLE details & history
Last TLE update: 7 hours ago

TLE from 7 hours ago
0 STARLINK-11433
1 62008U 24213A   25260.93021940  .00235283  00000-0  18795-2 0  9996
2 62008  53.1590 172.7328 0000669 114.9050 245.2038 15.69874522 47781
Epoch: 2025-09-17T22:19Z
TLE epoch observation values (Epoch: 2025-09-17T22:19:30.956Z)
Latitude
0.00003°
Longitude
-159.24527°
Altitude
360.36 km
Speed
7.694 km/s
True Right ascension
11h 30m 55s
True Declination
0° 00' 00"
Sunlit
Object was in daylight at epoch
Visualization orbit readout
Latitude
Unknown
Longitude
Unknown
Altitude
Unknown
Speed
Unknown
Apparent Right ascension
Unknown
Apparent Declination
Unknown
Sunlit
N/A
Visualization observer readout
Local Sidereal Time
22:24:58
Azimuth
Unknown
Elevation
Unknown
Doppler factor
Unknown
Orbital elements
Apogee altitude
359.968 km
Perigee altitude
359.066 km
Semi-major axis
6,737.654 km
Eccentricity
0.00007
Inclination
53.159°
RAAN
172.7328°
Arg. of periapsis
114.905°
True anomaly
245.19684°
Mean anomaly
245.2038°
Eccentric anomaly
245.20032°
Mean motion
3.92446 °/min
Orbital period
91.73 mins
BSTAR
0.0018795
Loading maneuver chart data...
Computing Atmospheric mass density...
Loading historical data...
Loading historical data...
Loading historical data...
Loading historical data...
Loading historical data...
Loading historical data...
Loading historical data...

Documentation

Showing up to 5 results
|